Overview Statistics Trail Chart Weather Telemetry Raw packets
 

This is the latest recevied weather packets stored in our database for station/object KD7CIH. If no packets are shown the sender has not sent any weather packets the latest 10 day(s).

<< 101 102 103 104 105 106 107 >>
Time Temp. Humidity Pressure Rain* Wind** Luminosity Snow
1787943667 26.11° C 29% 1017.8 hPa 0 mm - - -
1787943495 26.11° C 29% 1018 hPa 0 mm - - -
1787943068 26.11° C 29% 1018 hPa 0 mm - - -
1787942767 26.11° C 29% 1018 hPa 0 mm - - -
1787942466 26.67° C 28% 1018.1 hPa 0 mm - - -
1787942168 26.67° C 28% 1018.1 hPa 0 mm - - -
1787941866 26.67° C 28% 1018 hPa 0 mm - - -
1787941566 26.67° C 27% 1018.2 hPa 0 mm - - -
1787941265 26.67° C 29% 1018.4 hPa 0 mm - - -
1787940969 26.11° C 29% 1018.3 hPa 0 mm - - -
1787940667 26.11° C 30% 1018.6 hPa 0 mm - - -
1787940365 25.56° C 32% 1018.6 hPa 0 mm - - -
1787940065 25° C 32% 1018.7 hPa 0 mm - - -
1787939766 25° C 32% 1018.6 hPa 0 mm - - -
1787939593 25° C 33% 1018.6 hPa 0 mm - - -
1787939165 24.44° C 32% 1018.7 hPa 0 mm - - -
1787938868 24.44° C 33% 1018.7 hPa 0 mm - - -
1787938565 24.44° C 35% 1018.7 hPa 0 mm - - -
1787938265 24.44° C 35% 1018.7 hPa 0 mm - - -
1787937965 24.44° C 35% 1018.9 hPa 0 mm - - -
1787937667 23.89° C 36% 1018.8 hPa 0 mm - - -
1787937365 23.33° C 37% 1018.8 hPa 0 mm - - -
1787937066 23.33° C 37% 1018.8 hPa 0 mm - - -
1787936767 23.33° C 38% 1018.9 hPa 0 mm - - -
1787936468 22.78° C 39% 1019 hPa 0 mm - - -

* Rain latest hour (hover to see other rain measurements)
** Current wind speed in m/s (hover to see current wind gust speed)